Location: Bohy
(49.9380°N, 13.5753°E)
Time: 19:17:42
(UTC+00:00)

Cosmos 2221 - Pass Details

Date: 19 May 2025
Orbit: 572 x 593 km, 82.5° (Epoch: 20 June)

Event Time Altitude Azimuth Distance (km) Brightness Sun altitude
Exits shadow 20:01:20 12° 126° (SE) 1,738 4.2 -9.5°
Maximum altitude 20:03:46 19° 86° (E) 1,384 4.0 -9.8°
Drops below altitude 10° 20:06:46 10° 40° (NE) 1,897 5.2 -10.1°
Sets 20:09:25 0° 23° (NNE) 2,799 6.3 -10.4°
